Location: Robledo de Chavela
(40.5014°N, 4.2377°W)
Time: 23:02:00
(UTC+00:00)

Cosmos 2297 Rocket - Pass Details

Date: 18 April 2024
Orbit: 840 x 841 km, 71.0° (Epoch: 23 May)

Event Time Altitude Azimuth Distance (km) Brightness Sun altitude
Rises 22:15:09 0° 327° (NNW) 3,402 6.5 -31.2°
Reaches altitude 10° 22:17:47 10° 319° (NW) 2,463 5.5 -31.5°
Enters shadow 22:22:31 34° 262° (W) 1,362 3.4 -32.0°
